Wichita, KS

4:34 PM CDT on June 25, 2017 (GMT -0500)
Wichita Eisenhower National Airport

Weather History for KICT - December, 2012

Change the Weather History Date:

Sunday, December 16, 2012

  Actual Average Record
Temperature  
Mean Temperature 41 °F 33 °F  
Max Temperature 48 °F 43 °F 69 °F (1939)
Min Temperature 33 °F 24 °F -6 °F (1989)
Degree Days  
Heating Degree Days 24 32  
Month to date heating degree days 339 476  
Since 1 July heating degree days 1058 1352  
Cooling Degree Days 0 0  
Month to date cooling degree days 0 0  
Year to date cooling degree days 2312 1686  
Moisture  
Dew Point 34 °F    
Average Humidity 78    
Maximum Humidity 96    
Minimum Humidity 60    
Precipitation  
Precipitation 0.00 in 0.04 in 1.03 in (1928)
Month to date precipitation 0.15 0.68  
Year to date precipitation 24.82 32.12  
Snow  
Snow 0.00 in 0.20 in 4.50 in (1892)
Month to date snowfall 0.0 2.2  
Since 1 July snowfall T 3.6  
Snow Depth 0.00 in    
Sea Level Pressure  
Sea Level Pressure 29.75 in    
Wind  
Wind Speed 8 mph (NNE)    
Max Wind Speed 17 mph    
Max Gust Speed 21 mph    
Visibility 6 miles    
Events      
T = Trace of Precipitation, MM = Missing Value Source: NWS Daily Summary

Daily Weather History Graph

Daily Weather History Graph

Search for Another Location

Airport or City:

Trip Planner

Search our weather history database for the weather conditions in past years. The results will help you decide how hot, cold, wet, or windy it might be!

Date:

Astronomy

Dec. 16, 2012 Rise Set
Actual Time 7:38 AM CST 5:12 PM CST
Civil Twilight 7:09 AM CST 5:42 PM CST
Nautical Twilight 6:36 AM CST 6:15 PM CST
Astronomical Twilight 6:04 AM CST 6:46 PM CST
Moon 10:16 AM CST (12/16) 9:24 PM CST (12/16)
Length of Visible Light 10h 32m
Length of Day
9h 34m
Waxing Crescent, 16% of the Moon is Illuminated
Dec 16
Waxing Crescent
Dec 19
First Quarter
Dec 28
Full
Jan 4
Last Quarter
Jan 11
New

Hourly Weather History & Observations

Time (CST) Temp. Windchill Dew Point Humidity Pressure Visibility Wind Dir Wind Speed Gust Speed Precip Events Conditions
12:53 AM 37.0 °F 33.3 °F 34.0 °F 89% 29.70 in 8.0 mi North 4.6 mph - N/A   Partly Cloudy
1:53 AM 37.0 °F 33.3 °F 34.0 °F 89% 29.70 in 8.0 mi North 4.6 mph - N/A   Scattered Clouds
2:53 AM 37.0 °F 31.6 °F 34.0 °F 89% 29.70 in 8.0 mi NE 6.9 mph - N/A   Scattered Clouds
3:53 AM 37.9 °F 33.5 °F 36.0 °F 93% 29.71 in 7.0 mi NNE 5.8 mph - N/A   Scattered Clouds
4:53 AM 37.9 °F 33.5 °F 36.0 °F 93% 29.72 in 6.0 mi NE 5.8 mph - N/A   Partly Cloudy
5:53 AM 37.9 °F 32.7 °F 36.0 °F 93% 29.73 in 6.0 mi NNE 6.9 mph - N/A   Clear
6:53 AM 36.0 °F 30.3 °F 34.0 °F 93% 29.73 in 5.0 mi NE 6.9 mph - N/A   Partly Cloudy
7:53 AM 35.1 °F 27.9 °F 34.0 °F 96% 29.75 in 4.0 mi NNE 9.2 mph - N/A   Partly Cloudy
8:53 AM 37.0 °F 29.8 °F 35.1 °F 93% 29.75 in 4.0 mi NNE 10.4 mph - N/A   Partly Cloudy
9:53 AM 39.9 °F 31.8 °F 36.0 °F 86% 29.75 in 5.0 mi North 15.0 mph - N/A   Scattered Clouds
10:39 AM 42.8 °F 36.2 °F 35.6 °F 76% 29.74 in 5.0 mi NNE 12.7 mph - N/A   Haze
10:53 AM 41.0 °F 33.9 °F 35.1 °F 79% 29.76 in 5.0 mi North 12.7 mph - N/A   Haze
11:53 AM 41.0 °F 32.8 °F 34.0 °F 76% 29.72 in 5.0 mi North 16.1 mph - N/A   Haze
12:53 PM 42.1 °F 36.1 °F 35.1 °F 76% 29.72 in 7.0 mi North 10.4 mph - N/A   Overcast
1:53 PM 45.0 °F 38.9 °F 35.1 °F 68% 29.69 in 7.0 mi NNE 12.7 mph - N/A   Overcast
2:30 PM 44.6 °F 40.2 °F 33.8 °F 66% 29.68 in 8.0 mi NNE 8.1 mph - N/A   Scattered Clouds
2:53 PM 46.9 °F - 34.0 °F 61% 29.71 in 9.0 mi ENE 3.5 mph - N/A   Scattered Clouds
3:53 PM 45.0 °F 39.7 °F 33.1 °F 63% 29.74 in 10.0 mi North 10.4 mph - N/A   Mostly Cloudy
4:53 PM 43.0 °F 38.2 °F 33.1 °F 68% 29.74 in 10.0 mi North 8.1 mph - N/A   Mostly Cloudy
5:53 PM 42.1 °F 38.4 °F 33.1 °F 70% 29.75 in 9.0 mi North 5.8 mph - N/A   Mostly Cloudy
6:53 PM 39.9 °F 33.9 °F 30.9 °F 70% 29.78 in 8.0 mi North 9.2 mph - N/A   Mostly Cloudy
7:53 PM 37.9 °F 33.5 °F 34.0 °F 86% 29.80 in 6.0 mi NNE 5.8 mph - N/A   Overcast
8:53 PM 36.0 °F 32.1 °F 33.1 °F 89% 29.83 in 5.0 mi North 4.6 mph - N/A   Overcast
9:53 PM 34.0 °F 27.2 °F 30.9 °F 89% 29.83 in 5.0 mi NNE 8.1 mph - N/A   Overcast
10:23 PM 33.8 °F 28.6 °F 30.2 °F 87% 29.81 in 4.0 mi North 5.8 mph - N/A   Overcast
10:53 PM 34.0 °F 28.8 °F 32.0 °F 92% 29.83 in 4.0 mi North 5.8 mph - N/A   Overcast
11:53 PM 35.1 °F 29.3 °F 32.0 °F 89% 29.83 in 4.0 mi North 6.9 mph - N/A   Overcast